SWR7WA LSZH-LIMC

Flight info

Callsign SWR7WA
Flight time 0h 36m
Altitude 22000
Route VEBIT T53 OMIDO/N0400F240 T53 GERSA/N0395F230 DCT SOSON DCT DEGAD DCT BASGO Z424 AKASU/N0371F190 Z424 RIXUV
Aircraft A320/M-SDE2E3FGIRWXY/L

Departure

Time 2026-05-06 17:30
Airport Zürich Airport (LSZH)

Arrival

Time 2026-05-06 18:06
Airport Milan Malpensa International Airport (LIMC)
Time Latitude Longitude Altitude Speed Heading
2026-05-06 17:04 47.45410 8.56061 1397 ft 0 kts 186°
2026-05-06 17:24 47.45425 8.56063 1406 ft 4 kts 184°
2026-05-06 17:24 47.45452 8.56064 1403 ft 4 kts 174°
2026-05-06 17:24 47.45477 8.56055 1399 ft 4 kts 143°
2026-05-06 17:25 47.45488 8.56036 1407 ft 0 kts 96°
2026-05-06 17:27 47.45487 8.56041 1407 ft 4 kts 96°
2026-05-06 17:27 47.45479 8.56161 1397 ft 16 kts 93°
2026-05-06 17:27 47.45523 8.56299 1400 ft 15 kts 50°
2026-05-06 17:28 47.45587 8.56417 1401 ft 15 kts 58°
2026-05-06 17:28 47.45589 8.56575 1401 ft 20 kts 96°
2026-05-06 17:28 47.45570 8.56820 1397 ft 26 kts 96°
2026-05-06 17:28 47.45587 8.57010 1402 ft 12 kts 34°
2026-05-06 17:29 47.45660 8.57005 1399 ft 10 kts 296°
2026-05-06 17:29 47.45662 8.56982 1400 ft 0 kts 276°
2026-05-06 17:29 47.45663 8.56980 1399 ft 2 kts 276°
2026-05-06 17:29 47.45681 8.56713 1402 ft 64 kts 275°
2026-05-06 17:30 47.45752 8.55709 1397 ft 130 kts 276°
2026-05-06 17:30 47.45852 8.54171 1668 ft 158 kts 275°
2026-05-06 17:30 47.45980 8.52558 2425 ft 158 kts 275°
2026-05-06 17:30 47.46107 8.50910 2997 ft 175 kts 276°
2026-05-06 17:31 47.46237 8.49017 3401 ft 195 kts 272°
2026-05-06 17:31 47.46005 8.46920 3653 ft 225 kts 246°
2026-05-06 17:31 47.44997 8.44947 3990 ft 259 kts 220°
2026-05-06 17:31 47.43319 8.43710 4527 ft 285 kts 194°
2026-05-06 17:32 47.41377 8.43674 5873 ft 274 kts 175°
2026-05-06 17:32 47.39521 8.44180 7101 ft 271 kts 170°
2026-05-06 17:32 47.37679 8.44833 8090 ft 273 kts 169°
2026-05-06 17:32 47.35818 8.45474 9073 ft 276 kts 170°
2026-05-06 17:33 47.33931 8.46061 10012 ft 279 kts 171°
2026-05-06 17:33 47.31963 8.46612 10480 ft 300 kts 172°
2026-05-06 17:33 47.29833 8.47157 10851 ft 320 kts 173°
2026-05-06 17:33 47.27604 8.47700 11556 ft 328 kts 173°
2026-05-06 17:34 47.25326 8.48237 12339 ft 334 kts 173°
2026-05-06 17:34 47.23035 8.48765 13152 ft 338 kts 174°
2026-05-06 17:34 47.20685 8.49304 13939 ft 342 kts 174°
2026-05-06 17:34 47.18323 8.49851 14663 ft 345 kts 173°
2026-05-06 17:35 47.15938 8.50408 15379 ft 349 kts 173°
2026-05-06 17:35 47.13562 8.50963 16084 ft 352 kts 173°
2026-05-06 17:35 47.11132 8.51532 16797 ft 356 kts 173°
2026-05-06 17:36 47.06198 8.52688 18208 ft 362 kts 172°
2026-05-06 17:36 47.03703 8.53266 18843 ft 364 kts 173°
2026-05-06 17:36 47.01187 8.53741 19519 ft 365 kts 175°
2026-05-06 17:36 46.98650 8.54116 20176 ft 368 kts 176°
2026-05-06 17:37 46.96095 8.54445 20817 ft 370 kts 176°
2026-05-06 17:37 46.93521 8.54762 21430 ft 373 kts 176°
2026-05-06 17:37 46.90927 8.55091 21821 ft 374 kts 175°
2026-05-06 17:37 46.88328 8.55442 21913 ft 375 kts 175°
2026-05-06 17:38 46.85724 8.55810 21924 ft 376 kts 176°
2026-05-06 17:38 46.83133 8.56186 21917 ft 374 kts 175°
2026-05-06 17:38 46.80535 8.56566 21933 ft 374 kts 175°
2026-05-06 17:38 46.77944 8.56949 21906 ft 374 kts 175°
2026-05-06 17:39 46.75364 8.57326 21921 ft 372 kts 176°
2026-05-06 17:39 46.72784 8.57697 21923 ft 372 kts 176°
2026-05-06 17:39 46.70243 8.58060 21911 ft 371 kts 176°
2026-05-06 17:39 46.67669 8.58429 21919 ft 371 kts 176°
2026-05-06 17:40 46.65097 8.58796 22039 ft 372 kts 176°
2026-05-06 17:40 46.62532 8.59162 21923 ft 367 kts 176°
2026-05-06 17:40 46.59998 8.59521 21911 ft 365 kts 176°
2026-05-06 17:40 46.57465 8.59875 21908 ft 366 kts 176°
2026-05-06 17:41 46.54924 8.60228 21907 ft 367 kts 176°
2026-05-06 17:41 46.52383 8.60583 21906 ft 368 kts 176°
2026-05-06 17:41 46.49841 8.60939 21896 ft 366 kts 176°
2026-05-06 17:41 46.47299 8.61279 21891 ft 367 kts 179°
2026-05-06 17:42 46.44762 8.61119 21897 ft 365 kts 189°
2026-05-06 17:42 46.42303 8.60217 21905 ft 365 kts 201°
2026-05-06 17:42 46.40024 8.58614 21899 ft 365 kts 211°
2026-05-06 17:42 46.37871 8.56662 21903 ft 366 kts 211°
2026-05-06 17:43 46.35709 8.54715 21896 ft 365 kts 211°
2026-05-06 17:43 46.33551 8.52788 21901 ft 365 kts 211°
2026-05-06 17:43 46.31409 8.50876 21904 ft 366 kts 211°
2026-05-06 17:43 46.29172 8.49141 21906 ft 365 kts 202°
2026-05-06 17:44 46.26748 8.48071 21898 ft 365 kts 191°
2026-05-06 17:44 46.24221 8.47734 21871 ft 366 kts 181°
2026-05-06 17:44 46.21675 8.48028 21882 ft 368 kts 176°
2026-05-06 17:44 46.19123 8.48399 21884 ft 368 kts 177°
2026-05-06 17:45 46.16597 8.48760 21692 ft 361 kts 177°
2026-05-06 17:45 46.14129 8.49115 21426 ft 353 kts 177°
2026-05-06 17:45 46.11708 8.49503 21120 ft 347 kts 173°
2026-05-06 17:45 46.09382 8.50400 20653 ft 346 kts 163°
2026-05-06 17:46 46.07139 8.51610 20169 ft 343 kts 163°
2026-05-06 17:46 46.04913 8.52815 19679 ft 341 kts 163°
2026-05-06 17:46 46.02698 8.54013 19187 ft 339 kts 163°
2026-05-06 17:46 46.00497 8.55200 18697 ft 337 kts 162°
2026-05-06 17:47 45.98297 8.56385 18204 ft 337 kts 162°
2026-05-06 17:47 45.96108 8.57562 17744 ft 334 kts 162°
2026-05-06 17:47 45.93967 8.58715 17602 ft 323 kts 162°
2026-05-06 17:47 45.91901 8.59828 17439 ft 312 kts 162°
2026-05-06 17:48 45.89922 8.61047 17147 ft 309 kts 154°
2026-05-06 17:48 45.88184 8.62799 16882 ft 311 kts 144°
2026-05-06 17:48 45.86485 8.64779 16465 ft 311 kts 144°
2026-05-06 17:48 45.84821 8.66704 16004 ft 312 kts 145°
2026-05-06 17:49 45.83127 8.68659 15559 ft 312 kts 145°
2026-05-06 17:49 45.81430 8.70617 15138 ft 313 kts 145°
2026-05-06 17:49 45.79742 8.72568 14668 ft 314 kts 145°
2026-05-06 17:49 45.78052 8.74521 14410 ft 309 kts 144°
2026-05-06 17:50 45.76301 8.76268 14052 ft 304 kts 155°
2026-05-06 17:50 45.74363 8.77387 13617 ft 298 kts 165°
2026-05-06 17:50 45.72391 8.78311 13049 ft 297 kts 165°
2026-05-06 17:50 45.70428 8.79228 12495 ft 296 kts 165°
2026-05-06 17:51 45.68478 8.80137 11943 ft 293 kts 165°
2026-05-06 17:51 45.66550 8.81036 11366 ft 292 kts 165°
2026-05-06 17:51 45.64627 8.81931 11007 ft 289 kts 165°
2026-05-06 17:51 45.62714 8.82821 10599 ft 289 kts 165°
2026-05-06 17:52 45.60799 8.83714 10185 ft 290 kts 165°
2026-05-06 17:52 45.58890 8.84605 9772 ft 289 kts 164°
2026-05-06 17:52 45.56990 8.85493 9410 ft 286 kts 164°
2026-05-06 17:52 45.55119 8.86365 8990 ft 285 kts 164°
2026-05-06 17:53 45.53253 8.87236 8556 ft 279 kts 164°
2026-05-06 17:53 45.51396 8.88099 8005 ft 275 kts 164°
2026-05-06 17:53 45.49608 8.88929 7568 ft 273 kts 163°
2026-05-06 17:53 45.47810 8.89765 7154 ft 271 kts 163°
2026-05-06 17:54 45.46018 8.90595 6748 ft 271 kts 163°
2026-05-06 17:54 45.44228 8.91424 6333 ft 270 kts 163°
2026-05-06 17:54 45.42480 8.92237 6158 ft 257 kts 163°
2026-05-06 17:54 45.40821 8.93008 6030 ft 244 kts 163°
2026-05-06 17:55 45.39244 8.93740 5849 ft 234 kts 163°
2026-05-06 17:55 45.37684 8.94240 5635 ft 226 kts 172°
2026-05-06 17:55 45.36149 8.94652 5510 ft 223 kts 171°
2026-05-06 17:55 45.34629 8.95063 5383 ft 222 kts 171°
2026-05-06 17:56 45.33109 8.95453 5251 ft 219 kts 176°
2026-05-06 17:56 45.31667 8.95139 5126 ft 206 kts 205°
2026-05-06 17:56 45.30602 8.93899 4999 ft 200 kts 233°
2026-05-06 17:56 45.30101 8.92101 4884 ft 195 kts 255°
2026-05-06 17:57 45.29861 8.90253 4803 ft 184 kts 255°
2026-05-06 17:57 45.29631 8.88525 4664 ft 172 kts 255°
2026-05-06 17:57 45.29415 8.86926 4534 ft 158 kts 254°
2026-05-06 17:57 45.29215 8.85446 4403 ft 147 kts 254°
2026-05-06 17:58 45.29213 8.84016 4264 ft 147 kts 278°
2026-05-06 17:58 45.29670 8.82706 4136 ft 153 kts 307°
2026-05-06 17:58 45.30660 8.82145 3866 ft 170 kts 13°
2026-05-06 17:58 45.31839 8.82436 3432 ft 179 kts 357°
2026-05-06 17:59 45.32952 8.81800 3224 ft 167 kts 324°
2026-05-06 17:59 45.33989 8.81280 3375 ft 152 kts 357°
2026-05-06 17:59 45.35006 8.81089 3871 ft 149 kts 346°
2026-05-06 17:59 45.36058 8.80777 4014 ft 157 kts 346°
2026-05-06 18:00 45.37131 8.80473 4021 ft 157 kts 347°
2026-05-06 18:00 45.38202 8.80175 3894 ft 156 kts 347°
2026-05-06 18:00 45.39288 8.79875 3794 ft 171 kts 347°
2026-05-06 18:00 45.40544 8.79530 3666 ft 190 kts 348°
2026-05-06 18:01 45.41854 8.79172 3534 ft 192 kts 348°
2026-05-06 18:01 45.43152 8.78816 3411 ft 193 kts 347°
2026-05-06 18:01 45.44423 8.78469 3272 ft 174 kts 349°
2026-05-06 18:01 45.45541 8.78162 3157 ft 157 kts 348°
2026-05-06 18:02 45.46585 8.77876 3087 ft 149 kts 349°
2026-05-06 18:02 45.47593 8.77599 3031 ft 146 kts 349°
2026-05-06 18:02 45.48596 8.77323 3037 ft 147 kts 349°
2026-05-06 18:02 45.49599 8.77048 3021 ft 148 kts 349°
2026-05-06 18:03 45.50601 8.76772 2899 ft 146 kts 349°
2026-05-06 18:03 45.51595 8.76499 2738 ft 144 kts 349°
2026-05-06 18:03 45.52572 8.76230 2559 ft 142 kts 350°
2026-05-06 18:03 45.53537 8.75964 2377 ft 140 kts 350°
2026-05-06 18:04 45.54489 8.75703 2187 ft 139 kts 351°
2026-05-06 18:04 45.55434 8.75443 2000 ft 138 kts 351°
2026-05-06 18:04 45.56371 8.75185 1811 ft 137 kts 352°
2026-05-06 18:04 45.57301 8.74928 1623 ft 135 kts 352°
2026-05-06 18:05 45.58222 8.74674 1437 ft 134 kts 351°
2026-05-06 18:05 45.59138 8.74422 1267 ft 133 kts 351°
2026-05-06 18:05 45.60041 8.74169 1044 ft 134 kts 348°
2026-05-06 18:05 45.60931 8.73917 852 ft 131 kts 352°
2026-05-06 18:06 45.61815 8.73681 720 ft 127 kts 350°
2026-05-06 18:06 45.62555 8.73479 727 ft 83 kts 348°
2026-05-06 18:06 45.62946 8.73371 731 ft 34 kts 349°
2026-05-06 18:06 45.63125 8.73264 735 ft 29 kts 327°
2026-05-06 18:07 45.63267 8.73046 741 ft 31 kts 308°
2026-05-06 18:07 45.63378 8.72820 744 ft 26 kts 304°
2026-05-06 18:07 45.63406 8.72602 746 ft 23 kts 260°
2026-05-06 18:07 45.63373 8.72370 745 ft 25 kts 260°
2026-05-06 18:08 45.63337 8.72118 749 ft 27 kts 258°
2026-05-06 18:08 45.63306 8.71876 748 ft 16 kts 261°
2026-05-06 18:08 45.63284 8.71718 746 ft 16 kts 256°
2026-05-06 18:08 45.63197 8.71679 746 ft 14 kts 168°
2026-05-06 18:09 45.63074 8.71715 744 ft 21 kts 169°
2026-05-06 18:09 45.62926 8.71757 741 ft 23 kts 169°
2026-05-06 18:09 45.62760 8.71801 738 ft 26 kts 167°
2026-05-06 18:09 45.62598 8.71846 735 ft 17 kts 171°
2026-05-06 18:10 45.62529 8.71876 733 ft 7 kts 128°
2026-05-06 18:10 45.62532 8.71942 733 ft 6 kts 76°
2026-05-06 18:10 45.62536 8.71968 733 ft 0 kts 81°